Location: Roanoke
(37.2710°N, 79.9420°W)
Time: 18:56:51
(UTC-05:00)

Transit 2A - Pass Details

Date: 22 November 2019
Orbit: 602 x 957 km, 66.7° (Epoch: 06 December)

Event Time Altitude Azimuth Distance (km) Brightness Sun altitude
Rises 20:38:54 0° 332° (NNW) 2,858 - -42.2°
Reaches altitude 10° 20:41:07 10° 333° (NNW) 1,963 - -42.6°
Maximum altitude 20:45:30 89° 58° (ENE) 632 - -43.5°
Drops below altitude 10° 20:50:08 10° 153° (SSE) 2,068 - -44.4°
Sets 20:52:31 0° 154° (SSE) 3,026 - -44.9°
